• In Hungary
  • List of Countries
  • For 7 days
  • Water Temperature
  • Satellite Maps
  • Weather Map
  • News
  • Weather Widgets
  • user-avatar
    Login

    Hourly Weather Hobart

    Today, 18 January, Thursday

    Time Temperature Precipitation Wind Pressure Humidity
    00:00 +12°C° 0 mm 2 mps 749 mmHg 97%
    01:00 +12°C° 0 mm 2 mps 748 mmHg 98%
    02:00 +12°C° 0 mm 2 mps 748 mmHg 96%
    03:00 +12°C° 0 mm 2 mps 748 mmHg 94%
    04:00 +12°C° 0 mm 2 mps 747 mmHg 93%
    05:00 +14°C° 0 mm 2 mps 747 mmHg 81%
    06:00 +16°C° 0 mm 2 mps 747 mmHg 70%
    07:00 +17°C° 0 mm 2 mps 747 mmHg 59%
    08:00 +22°C° 0 mm 1 mps 747 mmHg 47%
    09:00 +25°C° 0 mm 1 mps 747 mmHg 35%
    10:00 +28°C° 0 mm 1 mps 747 mmHg 23%
    11:00 +30°C° 0 mm 2 mps 746 mmHg 20%
    12:00 +32°C° 0 mm 2 mps 746 mmHg 18%
    13:00 +35°C° 0 mm 3 mps 745 mmHg 15%
    14:00 +35°C° 0 mm 3 mps 745 mmHg 15%
    15:00 +36°C° 0 mm 4 mps 744 mmHg 15%
    16:00 +37°C° 0 mm 4 mps 744 mmHg 16%
    17:00 +34°C° 0 mm 4 mps 743 mmHg 22%
    18:00 +31°C° 0 mm 3 mps 743 mmHg 28%
    19:00 +29°C° 0 mm 2 mps 743 mmHg 34%
    20:00 +27°C° 0 mm 2 mps 743 mmHg 39%
    21:00 +24°C° 0 mm 2 mps 743 mmHg 44%
    22:00 +21°C° 0 mm 3 mps 743 mmHg 50%
    23:00 +20°C° 0 mm 3 mps 742 mmHg 50%

    Tomorrow, 19 January, Friday

    Time Temperature Precipitation Wind Pressure Humidity
    00:00 +20°C° 0 mm 3 mps 742 mmHg 50%
    01:00 +20°C° 0 mm 3 mps 742 mmHg 51%
    02:00 +20°C° 0 mm 3 mps 741 mmHg 48%
    03:00 +21°C° 0 mm 3 mps 741 mmHg 45%
    04:00 +21°C° 0 mm 3 mps 741 mmHg 42%
    05:00 +22°C° 0 mm 3 mps 741 mmHg 40%
    06:00 +25°C° 0 mm 3 mps 742 mmHg 38%
    07:00 +26°C° 0 mm 3 mps 742 mmHg 36%
    08:00 +27°C° 0 mm 3 mps 743 mmHg 37%
    09:00 +29°C° 0 mm 4 mps 743 mmHg 38%
    10:00 +30°C° 0 mm 4 mps 744 mmHg 39%
    11:00 +32°C° 0 mm 5 mps 744 mmHg 39%
    12:00 +32°C° 0 mm 5 mps 744 mmHg 39%
    13:00 +33°C° 0 mm 6 mps 745 mmHg 39%
    14:00 +30°C° 0.2 mm 5 mps 745 mmHg 45%
    15:00 +28°C° 0.2 mm 5 mps 745 mmHg 51%
    16:00 +27°C° 0.2 mm 4 mps 745 mmHg 57%
    17:00 +23°C° 0.2 mm 4 mps 746 mmHg 63%
    18:00 +21°C° 0.2 mm 3 mps 746 mmHg 69%
    19:00 +18°C° 0.2 mm 3 mps 746 mmHg 75%
    20:00 +17°C° 0 mm 2 mps 747 mmHg 79%
    21:00 +15°C° 0 mm 2 mps 748 mmHg 82%
    22:00 +14°C° 0 mm 1 mps 748 mmHg 85%
    23:00 +13°C° 0 mm 1 mps 748 mmHg 87%

    Day after tomorrow, 20 January, Saturday

    Time Temperature Precipitation Wind Pressure Humidity
    00:00 +13°C° 0 mm 1 mps 748 mmHg 88%
    01:00 +11°C° 0 mm 0 mps 748 mmHg 90%
    02:00 +11°C° 0 mm 0 mps 748 mmHg 91%
    03:00 +11°C° 0 mm 0 mps 748 mmHg 93%
    04:00 +11°C° 0 mm 0 mps 748 mmHg 94%
    05:00 +12°C° 0 mm 0 mps 748 mmHg 88%
    06:00 +15°C° 0 mm 1 mps 749 mmHg 82%
    07:00 +16°C° 0 mm 1 mps 749 mmHg 77%
    08:00 +19°C° 0 mm 1 mps 749 mmHg 66%
    09:00 +21°C° 0 mm 2 mps 749 mmHg 55%
    10:00 +24°C° 0 mm 2 mps 749 mmHg 44%
    11:00 +25°C° 0 mm 2 mps 749 mmHg 41%
    12:00 +27°C° 0 mm 3 mps 749 mmHg 38%
    13:00 +28°C° 0 mm 3 mps 749 mmHg 35%
    14:00 +27°C° 0 mm 3 mps 749 mmHg 39%
    15:00 +26°C° 0 mm 3 mps 749 mmHg 43%
    16:00 +25°C° 0 mm 4 mps 748 mmHg 47%
    17:00 +22°C° 0 mm 3 mps 749 mmHg 54%
    18:00 +20°C° 0 mm 3 mps 749 mmHg 61%
    19:00 +18°C° 0 mm 3 mps 749 mmHg 68%
    20:00 +16°C° 0 mm 2 mps 749 mmHg 77%
    21:00 +15°C° 0 mm 2 mps 749 mmHg 86%
    22:00 +13°C° 0 mm 2 mps 749 mmHg 95%
    23:00 +13°C° 0 mm 2 mps 749 mmHg 96%

    21 January, Sunday

    Time Temperature Precipitation Wind Pressure Humidity
    00:00 +12°C° 0 mm 2 mps 748 mmHg 97%
    01:00 +12°C° 0 mm 2 mps 748 mmHg 98%
    02:00 +12°C° 0 mm 2 mps 748 mmHg 98%
    03:00 +12°C° 0 mm 2 mps 747 mmHg 98%
    04:00 +12°C° 0 mm 2 mps 747 mmHg 98%
    05:00 +14°C° 0 mm 1 mps 747 mmHg 91%
    06:00 +15°C° 0 mm 1 mps 747 mmHg 85%
    07:00 +18°C° 0 mm 1 mps 747 mmHg 78%
    08:00 +21°C° 0 mm 1 mps 747 mmHg 65%
    09:00 +25°C° 0 mm 1 mps 747 mmHg 53%
    10:00 +28°C° 0 mm 1 mps 746 mmHg 40%
    11:00 +28°C° 0 mm 2 mps 746 mmHg 38%
    12:00 +29°C° 0 mm 2 mps 746 mmHg 35%
    13:00 +30°C° 0 mm 3 mps 745 mmHg 33%
    14:00 +29°C° 0 mm 3 mps 745 mmHg 37%
    15:00 +28°C° 0 mm 3 mps 744 mmHg 41%
    16:00 +27°C° 0 mm 3 mps 744 mmHg 45%
    17:00 +25°C° 0 mm 3 mps 744 mmHg 55%
    18:00 +22°C° 0 mm 3 mps 744 mmHg 65%
    19:00 +20°C° 0 mm 2 mps 744 mmHg 75%
    20:00 +18°C° 0 mm 2 mps 744 mmHg 82%
    21:00 +16°C° 0 mm 2 mps 744 mmHg 90%
    22:00 +15°C° 0 mm 1 mps 744 mmHg 98%
    23:00 +15°C° 0 mm 2 mps 743 mmHg 98%

    22 January, Monday

    Time Temperature Precipitation Wind Pressure Humidity
    00:00 +15°C° 0 mm 2 mps 743 mmHg 98%
    01:00 +15°C° 0 mm 2 mps 742 mmHg 98%
    02:00 +15°C° 0 mm 2 mps 742 mmHg 98%
    03:00 +14°C° 0 mm 2 mps 741 mmHg 98%
    04:00 +14°C° 0 mm 2 mps 741 mmHg 98%
    05:00 +16°C° 0 mm 1 mps 741 mmHg 92%
    06:00 +18°C° 0 mm 1 mps 741 mmHg 86%
    07:00 +19°C° 0 mm 1 mps 741 mmHg 79%
    08:00 +21°C° 0 mm 2 mps 741 mmHg 65%
    09:00 +25°C° 0 mm 2 mps 741 mmHg 50%
    10:00 +28°C° 0 mm 3 mps 741 mmHg 35%
    11:00 +29°C° 0 mm 3 mps 741 mmHg 31%
    12:00 +32°C° 0 mm 4 mps 740 mmHg 27%
    13:00 +33°C° 0 mm 4 mps 740 mmHg 22%
    14:00 +32°C° 0 mm 4 mps 740 mmHg 26%
    15:00 +30°C° 0 mm 4 mps 740 mmHg 29%
    16:00 +29°C° 0 mm 4 mps 740 mmHg 33%
    17:00 +26°C° 0 mm 4 mps 741 mmHg 43%
    18:00 +24°C° 0 mm 3 mps 741 mmHg 53%
    19:00 +20°C° 0 mm 3 mps 742 mmHg 63%
    20:00 +18°C° 0 mm 3 mps 742 mmHg 73%
    21:00 +16°C° 0 mm 2 mps 742 mmHg 82%
    22:00 +14°C° 0 mm 2 mps 743 mmHg 91%
    23:00 +14°C° 0 mm 2 mps 742 mmHg 92%

    23 January, Tuesday

    Time Temperature Precipitation Wind Pressure Humidity
    00:00 +14°C° 0 mm 2 mps 742 mmHg 93%
    01:00 +13°C° 0 mm 2 mps 742 mmHg 94%
    02:00 +13°C° 0 mm 1 mps 742 mmHg 95%
    03:00 +13°C° 0 mm 1 mps 742 mmHg 95%
    04:00 +12°C° 0 mm 1 mps 742 mmHg 96%
    05:00 +13°C° 0 mm 1 mps 742 mmHg 91%
    06:00 +14°C° 0 mm 1 mps 742 mmHg 86%
    07:00 +15°C° 0 mm 1 mps 743 mmHg 81%
    08:00 +17°C° 0 mm 2 mps 743 mmHg 70%
    09:00 +19°C° 0 mm 2 mps 743 mmHg 59%
    10:00 +21°C° 0 mm 2 mps 743 mmHg 48%
    11:00 +22°C° 0 mm 3 mps 743 mmHg 45%
    12:00 +24°C° 0 mm 3 mps 743 mmHg 42%
    13:00 +25°C° 0 mm 4 mps 742 mmHg 40%
    14:00 +23°C° 0 mm 4 mps 742 mmHg 41%
    15:00 +23°C° 0 mm 4 mps 743 mmHg 43%
    16:00 +23°C° 0 mm 4 mps 743 mmHg 45%
    17:00 +21°C° 0 mm 4 mps 743 mmHg 53%
    18:00 +19°C° 0 mm 3 mps 744 mmHg 62%
    19:00 +17°C° 0 mm 3 mps 744 mmHg 70%
    20:00 +16°C° 0 mm 3 mps 744 mmHg 75%
    21:00 +15°C° 0 mm 2 mps 745 mmHg 81%
    22:00 +14°C° 0 mm 2 mps 745 mmHg 86%
    23:00 +13°C° 0 mm 2 mps 745 mmHg 87%
    Show more